Location: Fort Worth, Tx
(32.7431°N, 97.3695°W)
Time: 10:49:22
(UTC-04:00)

Courier 1B - Pass Details

Date: 26 February 2024
Orbit: 962 x 1208 km, 28.3° (Epoch: 24 April)

Event Time Altitude Azimuth Distance (km) Brightness Sun altitude
Exits shadow 05:35:41 34° 166° (SSE) 1,580 8.5 -31.3°
Drops below altitude 10° 05:40:17 10° 131° (SE) 2,809 10.3 -30.3°
Sets 05:43:14 0° 123° (ESE) 3,798 11.2 -29.7°
